Weather History for Kearney, NE

Change the Weather History Date:

Friday, March 22, 2013

  Actual Average Record
Temperature  
Mean Temperature 32 °F 40 °F  
Max Temperature 36 °F 53 °F 90 °F (1910)
Min Temperature 27 °F 27 °F 6 °F (2002)
Degree Days  
Heating Degree Days 33 25  
Cooling Degree Days 0 0  
Moisture  
Dew Point 28 °F    
Average Humidity 91    
Maximum Humidity 100    
Minimum Humidity 82    
Precipitation  
Precipitation 0.05 in - 2.06 in (1979)
Sea Level Pressure  
Sea Level Pressure 29.90 in    
Wind  
Wind Speed 8 mph (ESE)    
Max Wind Speed 13 mph    
Max Gust Speed -    
Visibility 4 miles    
Events      
T = Trace of Precipitation, MM = Missing Value Source: NWS Daily Summary

Daily Weather History Graph

Daily Weather History Graph

Search for Another Location

Airport:

Trip Planner

Search our weather history database for the weather conditions in past years. The results will help you decide how hot, cold, wet, or windy it might be!

Date:

Astronomy

Mar. 22, 2013 Rise Set
Actual Time 7:35 AM CDT 7:50 PM CDT
Civil Twilight 7:08 AM CDT 8:17 PM CDT
Nautical Twilight 6:36 AM CDT 8:50 PM CDT
Astronomical Twilight 6:03 AM CDT 9:22 PM CDT
Moon 3:17 PM CDT (3/22) 4:38 AM CDT (3/22)
Length of Visible Light 13h 09m
Length of Day
12h 14m
Waxing Gibbous, 77% of the Moon is Illuminated
Mar 22
Waxing Gibbous
Mar 27
Full
Apr 2
Last Quarter
Apr 10
New
Apr 18
First Quarter

Hourly Weather History & Observations

Time (CDT) Temp. Windchill Dew Point Humidity Pressure Visibility Wind Dir Wind Speed Gust Speed Precip Events Conditions
12:15 AM 28.4 °F 20.4 °F 24.8 °F 86% 29.92 in 2.0 mi ESE 8.1 mph - N/A   Overcast
12:35 AM 28.4 °F 20.4 °F 26.6 °F 93% 29.92 in 0.8 mi ESE 8.1 mph - N/A   Overcast
12:55 AM 28.4 °F 20.4 °F 26.6 °F 93% 29.92 in 1.0 mi ESE 8.1 mph - N/A   Overcast
1:15 AM 28.4 °F 19.1 °F 26.6 °F 93% 29.91 in 1.8 mi ESE 10.4 mph - N/A   Overcast
1:35 AM 28.4 °F 19.7 °F 26.6 °F 93% 29.91 in 2.5 mi ESE 9.2 mph - N/A   Overcast
1:55 AM 28.4 °F 20.4 °F 26.6 °F 93% 29.90 in 1.8 mi ESE 8.1 mph - N/A   Overcast
2:15 AM 28.4 °F 19.7 °F 26.6 °F 93% 29.90 in 2.5 mi ESE 9.2 mph - N/A   Overcast
2:35 AM 28.4 °F 21.2 °F 26.6 °F 93% 29.91 in 2.5 mi East 6.9 mph - N/A   Overcast
2:55 AM 28.4 °F 21.2 °F 26.6 °F 93% 29.91 in 2.5 mi ESE 6.9 mph - N/A   Overcast
3:15 AM 28.4 °F 21.2 °F 26.6 °F 93% 29.91 in 1.2 mi ESE 6.9 mph - N/A   Overcast
3:35 AM 28.4 °F 21.2 °F 26.6 °F 93% 29.91 in 1.5 mi ESE 6.9 mph - N/A   Overcast
3:55 AM 28.4 °F 21.2 °F 26.6 °F 93% 29.91 in 2.0 mi ESE 6.9 mph - N/A   Overcast
4:15 AM 28.4 °F 23.3 °F 26.6 °F 93% 29.91 in 2.0 mi ESE 4.6 mph - N/A   Overcast
4:35 AM 28.4 °F 20.4 °F 26.6 °F 93% 29.90 in 2.0 mi ESE 8.1 mph - N/A   Overcast
4:55 AM 26.6 °F 17.5 °F 26.6 °F 100% 29.90 in 5.0 mi ESE 9.2 mph - N/A   Overcast
5:15 AM 26.6 °F 18.2 °F 26.6 °F 100% 29.89 in 5.0 mi ESE 8.1 mph - N/A   Overcast
5:35 AM 26.6 °F 18.2 °F 26.6 °F 100% 29.88 in 4.0 mi ESE 8.1 mph - N/A   Overcast
5:55 AM 26.6 °F 17.5 °F 24.8 °F 93% 29.88 in 5.0 mi East 9.2 mph - N/A   Overcast
6:15 AM 26.6 °F 18.2 °F 24.8 °F 93% 29.88 in 5.0 mi East 8.1 mph - N/A   Overcast
6:35 AM 26.6 °F 16.8 °F 24.8 °F 93% 29.88 in 3.0 mi East 10.4 mph - N/A   Overcast
6:55 AM 26.6 °F 16.8 °F 24.8 °F 93% 29.87 in 4.0 mi East 10.4 mph - N/A   Overcast
7:15 AM 26.6 °F 16.8 °F 24.8 °F 93% 29.88 in 5.0 mi East 10.4 mph - N/A   Overcast
7:35 AM 26.6 °F 17.5 °F 24.8 °F 93% 29.88 in 4.0 mi ESE 9.2 mph - N/A   Overcast
7:55 AM 26.6 °F 16.2 °F 24.8 °F 93% 29.88 in 4.0 mi ESE 11.5 mph - N/A   Overcast
8:15 AM 26.6 °F 16.8 °F 24.8 °F 93% 29.88 in 3.0 mi ESE 10.4 mph - N/A   Overcast
8:35 AM 26.6 °F 16.8 °F 24.8 °F 93% 29.89 in 3.0 mi ESE 10.4 mph - N/A   Overcast
8:55 AM 26.6 °F 15.7 °F 24.8 °F 93% 29.88 in 4.0 mi SE 12.7 mph - N/A   Overcast
9:15 AM 26.6 °F 15.2 °F 24.8 °F 93% 29.89 in 4.0 mi ESE 13.8 mph - N/A   Overcast
9:35 AM 26.6 °F 16.2 °F 24.8 °F 93% 29.89 in 3.0 mi ESE 11.5 mph - N/A   Overcast
9:55 AM 26.6 °F 16.2 °F 24.8 °F 93% 29.90 in 3.0 mi SE 11.5 mph - N/A   Overcast
10:15 AM 26.6 °F 14.3 °F 26.6 °F 100% 29.89 in 4.0 mi SE 16.1 mph - N/A   Overcast
10:35 AM 26.6 °F 16.8 °F 24.8 °F 93% 29.90 in 4.0 mi SSE 10.4 mph - N/A   Overcast
10:55 AM 28.4 °F 18.0 °F 26.6 °F 93% 29.90 in 5.0 mi SE 12.7 mph - N/A   Overcast
11:15 AM 28.4 °F 19.1 °F 24.8 °F 86% 29.91 in 5.0 mi SSE 10.4 mph - N/A   Overcast
11:35 AM 28.4 °F 19.7 °F 26.6 °F 93% 29.91 in 3.0 mi SSE 9.2 mph - N/A   Overcast
11:55 AM 28.4 °F 19.7 °F 26.6 °F 93% 29.91 in 3.0 mi SSE 9.2 mph - N/A   Overcast
12:15 PM 28.4 °F 20.4 °F 26.6 °F 93% 29.91 in 3.0 mi SSE 8.1 mph - N/A   Overcast
12:35 PM 28.4 °F 20.4 °F 26.6 °F 93% 29.91 in 3.0 mi SSE 8.1 mph - N/A   Overcast
12:55 PM 28.4 °F 20.4 °F 26.6 °F 93% 29.91 in 3.0 mi SSE 8.1 mph - N/A   Overcast
1:15 PM 30.2 °F 22.6 °F 28.4 °F 93% 29.91 in 3.0 mi SE 8.1 mph - N/A   Overcast
1:35 PM 30.2 °F 22.6 °F 28.4 °F 93% 29.91 in 3.0 mi SSE 8.1 mph - N/A   Overcast
1:55 PM 30.2 °F 22.6 °F 28.4 °F 93% 29.91 in 3.0 mi SSE 8.1 mph - N/A   Overcast
2:15 PM 30.2 °F 22.6 °F 28.4 °F 93% 29.90 in 3.0 mi SE 8.1 mph - N/A   Overcast
2:35 PM 32.0 °F 25.6 °F 30.2 °F 93% 29.89 in 3.0 mi SSE 6.9 mph - 0.02 in   Overcast
2:55 PM 32.0 °F 25.6 °F 28.4 °F 87% 29.88 in 3.0 mi SE 6.9 mph - 0.03 in   Overcast
3:15 PM 32.0 °F 25.6 °F 30.2 °F 93% 29.88 in 3.0 mi SSE 6.9 mph - 0.01 in   Overcast
3:35 PM 33.8 °F 27.7 °F 30.2 °F 87% 29.88 in 3.0 mi SE 6.9 mph - 0.01 in   Overcast
3:55 PM 33.8 °F 27.0 °F 30.2 °F 87% 29.88 in 4.0 mi SE 8.1 mph - 0.02 in   Overcast
4:15 PM 33.8 °F 28.6 °F 30.2 °F 87% 29.88 in 4.0 mi SE 5.8 mph - N/A   Overcast
4:35 PM 33.8 °F 29.6 °F 32.0 °F 93% 29.88 in 4.0 mi ESE 4.6 mph - N/A   Overcast
4:55 PM 35.6 °F 30.7 °F 32.0 °F 87% 29.87 in 4.0 mi ESE 5.8 mph - N/A   Overcast
5:15 PM 35.6 °F 29.9 °F 32.0 °F 87% 29.88 in 4.0 mi East 6.9 mph - N/A   Overcast
5:35 PM 35.6 °F 29.9 °F 32.0 °F 87% 29.88 in 5.0 mi East 6.9 mph - N/A   Overcast
5:55 PM 35.6 °F 30.7 °F 32.0 °F 87% 29.89 in 5.0 mi East 5.8 mph - N/A   Overcast
6:15 PM 35.6 °F 31.7 °F 30.2 °F 81% 29.90 in 5.0 mi East 4.6 mph - N/A   Overcast
6:35 PM 35.6 °F 29.9 °F 30.2 °F 81% 29.90 in 5.0 mi ESE 6.9 mph - N/A   Overcast
6:55 PM 35.6 °F 30.7 °F 30.2 °F 81% 29.91 in 5.0 mi East 5.8 mph - N/A   Overcast
7:15 PM 35.6 °F 30.7 °F 30.2 °F 81% 29.91 in 5.0 mi East 5.8 mph - N/A   Overcast
7:35 PM 33.8 °F 27.7 °F 30.2 °F 87% 29.91 in 5.0 mi East 6.9 mph - N/A   Overcast
7:55 PM 33.8 °F 28.6 °F 30.2 °F 87% 29.92 in 5.0 mi East 5.8 mph - N/A   Overcast
8:15 PM 33.8 °F 28.6 °F 30.2 °F 87% 29.93 in 7.0 mi East 5.8 mph - N/A   Overcast
8:35 PM 33.8 °F 29.6 °F 30.2 °F 87% 29.93 in 7.0 mi East 4.6 mph - N/A   Overcast
8:55 PM 33.8 °F 29.6 °F 30.2 °F 87% 29.93 in 6.0 mi East 4.6 mph - N/A   Overcast
9:15 PM 33.8 °F 27.7 °F 30.2 °F 87% 29.92 in 6.0 mi ENE 6.9 mph - N/A   Overcast
9:35 PM 33.8 °F 27.0 °F 30.2 °F 87% 29.93 in 4.0 mi East 8.1 mph - N/A   Overcast
9:55 PM 33.8 °F 26.4 °F 30.2 °F 87% 29.94 in 5.0 mi East 9.2 mph - N/A   Overcast
10:15 PM 33.8 °F 25.8 °F 30.2 °F 87% 29.94 in 5.0 mi East 10.4 mph - N/A   Overcast
10:35 PM 32.0 °F 24.2 °F 30.2 °F 93% 29.94 in 5.0 mi East 9.2 mph - N/A   Overcast
10:55 PM 32.0 °F 24.8 °F 30.2 °F 93% 29.96 in 5.0 mi East 8.1 mph - N/A   Overcast
11:15 PM 32.0 °F 26.4 °F 30.2 °F 93% 29.96 in 5.0 mi East 5.8 mph - N/A   Overcast
11:35 PM 32.0 °F 24.2 °F 30.2 °F 93% 29.96 in 4.0 mi East 9.2 mph - N/A   Overcast
11:55 PM 32.0 °F 24.2 °F 30.2 °F 93% 29.95 in 4.0 mi East 9.2 mph - N/A   Overcast